GSAT0103 (GALILEO-FM3)

Last updated on Feb. 23, 2020, 4:52 a.m. UTC

1 38857U 12055A   20053.43719004 -.00000027  00000-0  00000+0 0  9991
2 38857  54.9616 164.9751 0002696 253.2588 106.6801  1.70473748 45836
UTC
Height (km)
Latitude
Longitude
Inclination
Orbital Period
UTC large
Height (km)
Speed (km/s)
/
Latitude / Longitude
Inclination (degrees)
Orbital Period (minutes)
Azimuth
Elevation
Range (km)
Doppler Factor
iOS Compass Heading
iOS Angle

Next 30 passes for location: Hong Kong

Rise time Rise Azimuth (degrees) Set time Set Azimuth (degrees) Duration Max altitude (degrees)

No matching passes for this satellites